Powrót do katalogu

FENGYUN 1C DEB

LostSSO
NORAD 38140·DEBRIS·🇨🇳 China

Wystrzelony May 10, 1999 z Taiyuan Satellite Launch Center

Loading…

Następne Przeloty (najbliższe 24 godziny)

TLE

NieaktualneSource: Space-Track

Epoka: Jul 23, 2022, 10:18 UTC

1 38140U 99025EQM 22204.42960655  .00002578  00000-0  98603-3 0  9999
2 38140  98.7002 279.4431 0060679 120.9736 239.7427 14.30505777703799

Śledź FENGYUN 1C DEB w czasie rzeczywistym z AllMySat

Download on the App Store